Zurück zum Katalog

YAOGAN 16A

AktivMilitärLEO
NORAD 39011·PAYLOAD·🇨🇳 China

Gestartet Nov 25, 2012 von Jiuquan Satellite Launch Center

Loading…

Nächste Überflüge (nächste 24 Stunden)

TLE

AktuellSource: Space-Track

Epoche: Sep 14, 2026, 10:31 UTC

1 39011U 12066A   26257.43883906 -.00000076  00000-0  13653-4 0  9998
2 39011  63.3521  59.2592 0442623  27.9025 334.4993 13.45521761678151

Verfolge YAOGAN 16A in Echtzeit mit AllMySat

Download on the App Store